{"data":{"norad_id":25159,"intl_designator":"1998-007C","name":"ORBCOMM FM04","alt_names":[],"object_type":"PAYLOAD","status":"ACTIVE","operator":null,"country":"ORB","launch_date":"1998-02-10","launch_site_code":"AFWTR","launch_vehicle":null,"mission":null,"orbit_class":"UNKNOWN","rcs_meters":0.883,"size_class":null,"mass_kg":null,"dimensions":null,"purposes":["comms"],"wikipedia_slug":null,"has_3d_model":false,"image_url":null,"decayed_at":null,"tle_current":{"epoch":"2026-09-19T02:26:37.806144Z","epoch_age_seconds":132283,"freshness":"FRESH","line1":"1 25159U 98007C   26262.10182646  .00000560  00000+0  23660-3 0  9992","line2":"2 25159 107.9603   2.7099 0040265 164.8412 195.3944 14.35868820490070","mean_motion":14.3586882,"eccentricity":0.0040265,"inclination_deg":107.9603,"raan_deg":2.7099,"arg_perigee_deg":164.8412,"mean_anomaly_deg":195.3944,"bstar":0.0002366,"rev_number":49007,"period_min":100.28771291238,"perigee_km":743.38982746467,"apogee_km":800.97133494612,"semimajor_km":7150.3175812054,"source":"CELESTRAK","updated_at":"2026-09-20T09:00:44.908534Z"}}}